WESTFORD NEEDLES, 19051

Orbit data source: Space-Track

WESTFORD NEEDLES, 19051 is space debris in LEO originally from a launch on Thu, 09 May 1963 UTC launched from the Air Force Western Test Range (AFWTR). Debris objects in space refer to the collection of defunct objects orbiting the Earth. Examples of debris include non-operational satellites, rocket bodies, and fragments generated from explosions, collisions, or faulty payload assembly.

Loading next visibility...
Identifier
19051, 1963-014EA
Orbit
LEO
Country
Flag of USUS
Related business
Manufacturer
Unknown
Mission
Spacecraft
Bus & Motor
Unknown
Mass
Unknown
Launch date (UTC)
1963-05-09 (63 years ago)
Launch vehicle
Unknown
Launch site
Air Force Western Test Range (AFWTR)
Object type
Payload
Rocket body
Debris
Shape & HBR
Unknown shape, 0.2 m
Radar Cross Section
Medium (>0.1 m² and <1 m²)

Expand to show TLE details & history
Last TLE update: 2 days ago

TLE from 2 days ago
0 WESTFORD NEEDLES
1 19051U 63014EA  26126.06011234  .00000078  00000-0  34647-1 0  9994
2 19051  87.3718 156.3695 0169627 287.4555  70.7822  8.66789837439693
Epoch: 2026-05-06T01:26Z
TLE epoch observation values (Epoch: 2026-05-06T01:26:33.706Z)
Latitude
-0.00006°
Longitude
-89.19697°
Altitude
3,581.325 km
Speed
6.344 km/s
True Right ascension
10h 25m 28s
True Declination
0° 00' 00"
Sunlit
Object was in daylight at epoch
Visualization orbit readout
Latitude
Unknown
Longitude
Unknown
Altitude
Unknown
Speed
Unknown
Apparent Right ascension
Unknown
Apparent Declination
Unknown
Sunlit
N/A
Visualization observer readout
Local Sidereal Time
21:02:20
Azimuth
Unknown
Elevation
Unknown
Doppler factor
Unknown
Orbital elements
Apogee altitude
3,800.034 km
Perigee altitude
3,460.495 km
Semi-major axis
10,008.401 km
Eccentricity
0.01696
Inclination
87.3718°
RAAN
156.3695°
Arg. of periapsis
287.4555°
True anomaly
72.63024°
Mean anomaly
70.7822°
Eccentric anomaly
71.70496°
Mean motion
2.16768 °/min
Orbital period
166.08 mins
BSTAR
0.034647
Loading maneuver chart data...
Computing Atmospheric mass density...
Loading historical data...
Loading historical data...
Loading historical data...
Loading historical data...
Loading historical data...
Loading historical data...
Loading historical data...

Documentation

Showing up to 5 results
|